Weather History for West Palm Beach, FL

Change the Weather History Date:

Thursday, November 4, 2010

  Actual Average Record
Temperature  
Mean Temperature 76 °F 75 °F  
Max Temperature 81 °F 82 °F 90 °F (1980)
Min Temperature 71 °F 68 °F 46 °F (1966)
Degree Days  
Heating Degree Days 0 0  
Month to date heating degree days 0 0  
Since 1 July heating degree days 0 1  
Cooling Degree Days 11 10  
Month to date cooling degree days 60 40  
Year to date cooling degree days 3828 3661  
Growing Degree Days 26 (Base 50)    
Moisture  
Dew Point 70 °F    
Average Humidity 85    
Maximum Humidity 100    
Minimum Humidity 69    
Precipitation  
Precipitation 0.93 in 0.17 in 4.75 in (1998)
Month to date precipitation 0.97 0.69  
Year to date precipitation 51.68 54.89  
Snow  
Snow 0.00 in - - ()
Month to date snowfall 0.0  
Since 1 July snowfall 0.0  
Since 1 September snowfall 0.0  
Snow Depth 0.00 in    
Sea Level Pressure  
Sea Level Pressure 29.69 in    
Wind  
Wind Speed 7 mph (SW)    
Max Wind Speed 17 mph    
Max Gust Speed 23 mph    
Visibility 8 miles    
Events Fog , Rain    
T = Trace of Precipitation, MM = Missing Value Source: NWS Daily Summary

Daily Weather History Graph

Daily Weather History Graph

Search for Another Location

Airport:

Trip Planner

Search our weather history database for the weather conditions in past years. The results will help you decide how hot, cold, wet, or windy it might be!

Date:

Astronomy

Nov. 04, 2010 Rise Set
Actual Time 7:31 AM EDT 6:35 PM EDT
Civil Twilight 7:07 AM EDT 6:59 PM EDT
Nautical Twilight 6:40 AM EDT 7:27 PM EDT
Astronomical Twilight 6:13 AM EDT 7:54 PM EDT
Moon 5:46 AM EDT (11/4) 5:17 PM EDT (11/4)
Length of Visible Light 11h 51m
Length of Day
11h 03m
Waning Crescent, 3% of the Moon is Illuminated
Nov 4
Waning Crescent
Nov 6
New
Nov 13
First Quarter
Nov 21
Full
Nov 28
Last Quarter

Hourly Weather History & Observations

Time (EDT) Temp. Heat Index Dew Point Humidity Pressure Visibility Wind Dir Wind Speed Gust Speed Precip Events Conditions
12:53 AM 73.9 °F - 70.0 °F 87% 29.81 in 9.0 mi South 5.8 mph - 0.00 in   Overcast
1:04 AM 73.4 °F - 71.6 °F 94% 29.81 in 2.5 mi SW 3.5 mph - 0.10 in Rain Heavy Rain
1:15 AM 73.4 °F - 71.6 °F 94% 29.80 in 5.0 mi WSW 4.6 mph - 0.13 in Rain Light Rain
1:42 AM 73.4 °F - 73.4 °F 100% 29.78 in 9.0 mi Calm Calm - 0.18 in Rain Light Rain
1:53 AM 73.0 °F - 73.0 °F 100% 29.78 in 10.0 mi Calm Calm - 0.18 in   Overcast
2:53 AM 75.0 °F - 71.1 °F 87% 29.75 in 10.0 mi South 8.1 mph - N/A   Mostly Cloudy
3:53 AM 73.9 °F - 69.1 °F 85% 29.73 in 10.0 mi South 10.4 mph - 0.00 in   Overcast
4:53 AM 73.9 °F - 70.0 °F 87% 29.71 in 10.0 mi South 6.9 mph - 0.00 in   Overcast
5:53 AM 73.0 °F - 68.0 °F 84% 29.71 in 10.0 mi WSW 3.5 mph - N/A   Overcast
6:53 AM 73.0 °F - 68.0 °F 84% 29.71 in 10.0 mi SW 4.6 mph - 0.00 in   Overcast
7:53 AM 73.9 °F - 70.0 °F 87% 29.72 in 10.0 mi SW 8.1 mph - N/A   Mostly Cloudy
8:53 AM 75.0 °F - 70.0 °F 84% 29.73 in 10.0 mi SW 8.1 mph - N/A   Mostly Cloudy
9:53 AM 75.9 °F - 71.1 °F 85% 29.74 in 10.0 mi SW 10.4 mph - N/A   Mostly Cloudy
10:53 AM 78.1 °F - 72.0 °F 81% 29.72 in 10.0 mi SSW 10.4 mph - N/A   Mostly Cloudy
11:53 AM 79.0 °F - 71.1 °F 77% 29.69 in 10.0 mi SSW 11.5 mph - N/A   Overcast
12:53 PM 80.1 °F 82.9 °F 69.1 °F 69% 29.67 in 10.0 mi SW 11.5 mph - N/A   Overcast
1:53 PM 79.0 °F - 68.0 °F 69% 29.65 in 10.0 mi SW 9.2 mph - N/A   Overcast
2:53 PM 79.0 °F - 68.0 °F 69% 29.63 in 10.0 mi WSW 9.2 mph - 0.00 in Rain Light Rain
3:53 PM 78.1 °F - 68.0 °F 71% 29.62 in 10.0 mi SW 9.2 mph - 0.00 in   Overcast
4:53 PM 78.1 °F - 69.1 °F 74% 29.63 in 10.0 mi SW 8.1 mph - 0.00 in Rain Light Rain
5:44 PM 75.2 °F - 69.8 °F 83% 29.63 in 2.0 mi WSW 8.1 mph - 0.02 in Rain Heavy Rain
5:53 PM 75.0 °F - 71.1 °F 87% 29.63 in 2.0 mi WSW 5.8 mph - 0.09 in Rain Heavy Rain
6:06 PM 73.4 °F - 69.8 °F 88% 29.64 in 0.5 mi WNW 13.8 mph 20.7 mph 0.07 in Fog , Rain Heavy Rain
6:10 PM 71.6 °F - 69.8 °F 94% 29.65 in 0.5 mi WNW 15.0 mph 20.7 mph 0.23 in Fog , Rain Heavy Rain
6:27 PM 71.6 °F - 69.8 °F 94% 29.65 in 2.0 mi West 8.1 mph - 0.65 in Rain Heavy Rain
6:33 PM 71.6 °F - 69.8 °F 94% 29.65 in 4.0 mi West 6.9 mph - 0.67 in Rain Rain
6:43 PM 71.6 °F - 69.8 °F 94% 29.65 in 8.0 mi West 3.5 mph - 0.68 in Rain Light Rain
6:53 PM 72.0 °F - 69.1 °F 91% 29.65 in 10.0 mi Calm Calm - 0.68 in Rain Light Rain
7:53 PM 72.0 °F - 71.1 °F 97% 29.64 in 10.0 mi West 3.5 mph - 0.00 in   Overcast
8:53 PM 72.0 °F - 71.1 °F 97% 29.65 in 10.0 mi Calm Calm - N/A   Mostly Cloudy
9:53 PM 72.0 °F - 72.0 °F 100% 29.66 in 10.0 mi South 3.5 mph - N/A   Mostly Cloudy
10:53 PM 72.0 °F - 70.0 °F 93% 29.67 in 10.0 mi SW 4.6 mph - N/A   Mostly Cloudy
11:53 PM 72.0 °F - 69.1 °F 91% 29.68 in 10.0 mi WSW 8.1 mph - N/A   Overcast